METEOR 2-11 DEB, 40708

Orbit data source: Space-Track

METEOR 2-11 DEB, 40708 is space debris in LEO originally from a launch on Thu, 05 Jul 1984 UTC launched from the Plesetsk Missile And Space Complex (PKMTR). Debris objects in space refer to the collection of defunct objects orbiting the Earth. Examples of debris include non-operational satellites, rocket bodies, and fragments generated from explosions, collisions, or faulty payload assembly.

Loading next visibility...
Identifier
40708, 1984-072K
Orbit
LEO
Country
Flag of CISCIS
Related business
Manufacturer
Unknown
Mission
Spacecraft
Bus & Motor
Unknown
Mass
Unknown
Launch date (UTC)
1984-07-05 (42 years ago)
Launch vehicle
Unknown
Launch site
Plesetsk Missile And Space Complex (PKMTR)
Object type
Payload
Rocket body
Debris
Shape & HBR
Unknown shape, 0.1 m
Radar Cross Section
Small (<0.1 m²)

Expand to show TLE details & history
Last TLE update: 2 days ago

TLE from 2 days ago
0 METEOR 2-11 DEB
1 40708U 84072K   26060.81145028  .00001905  00000-0  13298-2 0  9993
2 40708  82.5417  92.8732 0017824 258.8194 101.0970 13.98026120559030
Epoch: 2026-03-01T19:28Z
TLE epoch observation values (Epoch: 2026-03-01T19:28:29.304Z)
Latitude
-0.00004°
Longitude
1.13724°
Altitude
906.079 km
Speed
7.398 km/s
True Right ascension
06h 11m 29s
True Declination
0° 00' 00"
Sunlit
Object was in daylight at epoch
Visualization orbit readout
Latitude
Unknown
Longitude
Unknown
Altitude
Unknown
Speed
Unknown
Apparent Right ascension
Unknown
Apparent Declination
Unknown
Sunlit
N/A
Visualization observer readout
Local Sidereal Time
16:09:18
Azimuth
Unknown
Elevation
Unknown
Doppler factor
Unknown
Orbital elements
Apogee altitude
910.74 km
Perigee altitude
884.803 km
Semi-major axis
7,275.908 km
Eccentricity
0.00178
Inclination
82.5417°
RAAN
92.8732°
Arg. of periapsis
258.8194°
True anomaly
101.29734°
Mean anomaly
101.097°
Eccentric anomaly
101.19718°
Mean motion
3.49713 °/min
Orbital period
102.94 mins
BSTAR
0.0013298
Loading maneuver chart data...
Computing Atmospheric mass density...
Loading historical data...
Loading historical data...
Loading historical data...
Loading historical data...
Loading historical data...
Loading historical data...
Loading historical data...

Documentation

Showing up to 5 results
|